Regional Weather Roundup
Issued by NWS

Home | Current Version | Previous Version | Graphics & Text | Print | Product List | Glossary On
Versions: 1 2 3 4 5 6 7 8 9 10 11 12 13 14 15 16 17 18 19 20 21 22 23 24 25 26 27 28 29 30 31 32 33 34 35 36 37 38 39 40 41 42 43 44 45 46 47 48 49 50
000
ASUS43 KFSD 250110
RWRSD

WEATHER ROUNDUP FOR SOUTH DAKOTA
NATIONAL WEATHER SERVICE SIOUX FALLS SD
800 PM CDT SUN MAY 24 2015

NOTE: "FAIR" INDICATES FEW OR NO CLOUDS BELOW 12,000 FEET WITH NO
SIGNIFICANT WEATHER AND/OR OBSTRUCTIONS TO VISIBILITY.


SDZ001>005-009-010-012>017-250200-
NORTHWEST AND NORTH CENTRAL SOUTH DAKOTA

CITY           SKY/WX    TMP DP  RH WIND       PRES   REMARKS
BUFFALO          N/A     55  52  89 E8        29.85F
FAITH            N/A     56  53  90 W3        29.90F
MOBRIDGE       LGT RAIN  59  58  96 NE9       29.84F
$$

SDZ012>016-024>037-041>051-057-063-072>074-250200-
SOUTHWEST AND SOUTH CENTRAL SOUTH DAKOTA

CITY           SKY/WX    TMP DP  RH WIND       PRES   REMARKS
RAPID CTY ARPT RAIN      55  53  93 NE10      29.85F FOG
PIERRE         CLOUDY    59  57  93 E12       29.82F
CUSTER         CLOUDY    50  47  89 NE8       29.89S FOG
ELLSWORTH AFB  CLOUDY    55  55 100 NE10      29.85
PHILIP         CLOUDY    59  57  93 NE10      29.82F
PINE RIDGE     PTSUNNY   59  54  83 NE13      29.80F
SPEARFISH      PTSUNNY   50  50 100 NE10      29.91S
WINNER         CLOUDY    61  58  90 NE7       29.81S FOG
$$

SDZ004>011-016>023-039-040-250200-
NORTHEAST SOUTH DAKOTA

CITY           SKY/WX    TMP DP  RH WIND       PRES   REMARKS
ABERDEEN       LGT RAIN  60  57  89 E8        29.86S
WATERTOWN      LGT RAIN  58  56  93 NE9       29.83F FOG
BROOKINGS      CLOUDY    59  57  94 E10       29.82F
SISSETON         N/A     59  58  96 E8        29.86F
$$

SDZ017-020-022-023-036>040-048>070-250200-
SOUTHEAST SOUTH DAKOTA

CITY           SKY/WX    TMP DP  RH WIND       PRES   REMARKS
SIOUX FALLS    CLOUDY    61  59  93 NE7       29.78F
HURON          CLOUDY    61  58  90 E3        29.82S
CHAMBERLAIN    CLOUDY    59  59  97 E6        29.81S
MITCHELL       CLOUDY    62  60  93 NE8       29.80F
YANKTON        CLOUDY    61  59  94 CALM      29.78S
$$

ABBREVIATIONS USED IN REMARKS
   TC - TEMPERATURE IN CELSIUS
  WCI - WIND CHILL INDEX
   HX - HEAT INDEX
  VSB - VISIBILITY




USA.gov is the U.S. government's official web portal to all federal, state and local government web resources and services.